Time,TemperatureF,DewpointF,PressureIn,WindDirection,WindDirectionDegrees,WindSpeedMPH,WindSpeedGustMPH,Humidity,HourlyPrecipIn,Conditions,Clouds,dailyrainin,SoftwareType,DateUTC
2013-04-19 02:13:00,13.0,-99.9,-100.00,East,96,0.0,0.0,-999,-99.99,,,-99.99,,2013-04-19 10:13:00,
2013-04-19 03:22:00,12.0,-99.9,-100.00,East,96,0.0,0.0,-999,-99.99,,,-99.99,,2013-04-19 11:22:00,
2013-04-19 06:12:00,9.0,-99.9,-100.00,East,96,0.0,0.0,-999,-99.99,,,-99.99,,2013-04-19 14:12:00,
2013-04-19 09:22:00,19.0,-99.9,-100.00,East,96,0.0,0.0,-999,-99.99,,,-99.99,,2013-04-19 17:22:00,
2013-04-19 09:33:00,19.0,-99.9,-100.00,East,96,0.0,0.0,-999,-99.99,,,-99.99,,2013-04-19 17:33:00,
2013-04-19 11:22:00,34.0,-99.9,-100.00,NNW,336,0.0,0.0,-999,-99.99,,,-99.99,,2013-04-19 19:22:00,
2013-04-19 11:32:00,34.0,-99.9,-100.00,NNW,336,0.0,0.0,-999,-99.99,,,-99.99,,2013-04-19 19:32:00,
2013-04-19 11:42:00,34.0,-99.9,-100.00,NNW,336,0.0,0.0,-999,-99.99,,,-99.99,,2013-04-19 19:42:00,
2013-04-19 11:52:00,34.0,-99.9,-100.00,NNW,336,0.0,0.0,-999,-99.99,,,-99.99,,2013-04-19 19:52:00,
2013-04-19 12:11:00,36.0,-99.9,-100.00,North,350,4.0,4.0,-999,-99.99,,,-99.99,,2013-04-19 20:11:00,
2013-04-19 12:22:00,36.0,-99.9,-100.00,North,350,4.0,4.0,-999,-99.99,,,-99.99,,2013-04-19 20:22:00,
2013-04-19 12:32:00,36.0,-99.9,-100.00,North,350,4.0,4.0,-999,-99.99,,,-99.99,,2013-04-19 20:32:00,
2013-04-19 12:42:00,36.0,-99.9,-100.00,North,350,4.0,4.0,-999,-99.99,,,-99.99,,2013-04-19 20:42:00,
2013-04-19 12:52:00,36.0,-99.9,-100.00,North,350,4.0,4.0,-999,-99.99,,,-99.99,,2013-04-19 20:52:00,
2013-04-19 13:12:00,38.0,-99.9,-100.00,NW,324,3.0,4.0,-999,-99.99,,,-99.99,,2013-04-19 21:12:00,
2013-04-19 13:22:00,38.0,-99.9,-100.00,NW,324,3.0,4.0,-999,-99.99,,,-99.99,,2013-04-19 21:22:00,
2013-04-19 13:32:00,38.0,-99.9,-100.00,NW,324,3.0,4.0,-999,-99.99,,,-99.99,,2013-04-19 21:32:00,
2013-04-19 13:43:00,38.0,-99.9,-100.00,NW,324,3.0,4.0,-999,-99.99,,,-99.99,,2013-04-19 21:43:00,
2013-04-19 13:53:00,38.0,-99.9,-100.00,NW,324,3.0,4.0,-999,-99.99,,,-99.99,,2013-04-19 21:53:00,
2013-04-19 16:22:00,42.0,-99.9,-100.00,WNW,290,4.0,4.0,-999,-99.99,,,-99.99,,2013-04-20 00:22:00,
2013-04-19 16:32:00,42.0,-99.9,-100.00,WNW,290,4.0,4.0,-999,-99.99,,,-99.99,,2013-04-20 00:32:00,
2013-04-19 16:42:00,42.0,-99.9,-100.00,WNW,290,4.0,4.0,-999,-99.99,,,-99.99,,2013-04-20 00:42:00,
2013-04-19 16:52:00,42.0,-99.9,-100.00,WNW,290,4.0,4.0,-999,-99.99,,,-99.99,,2013-04-20 00:52:00,
2013-04-19 18:11:00,45.0,-99.9,-100.00,East,86,0.0,0.0,-999,-99.99,,,-99.99,,2013-04-20 02:11:00,
2013-04-19 18:22:00,45.0,-99.9,-100.00,East,86,0.0,0.0,-999,-99.99,,,-99.99,,2013-04-20 02:22:00,
2013-04-19 18:32:00,45.0,-99.9,-100.00,East,86,0.0,0.0,-999,-99.99,,,-99.99,,2013-04-20 02:32:00,
2013-04-19 18:42:00,45.0,-99.9,-100.00,East,86,0.0,0.0,-999,-99.99,,,-99.99,,2013-04-20 02:42:00,
2013-04-19 18:52:00,45.0,-99.9,-100.00,East,86,0.0,0.0,-999,-99.99,,,-99.99,,2013-04-20 02:52:00,
2013-04-19 20:23:00,40.0,-99.9,-100.00,WNW,299,0.0,0.0,-999,-99.99,,,-99.99,,2013-04-20 04:23:00,
2013-04-19 20:33:00,40.0,-99.9,-100.00,WNW,299,0.0,0.0,-999,-99.99,,,-99.99,,2013-04-20 04:33:00,
2013-04-19 20:43:00,40.0,-99.9,-100.00,WNW,299,0.0,0.0,-999,-99.99,,,-99.99,,2013-04-20 04:43:00,
2013-04-19 20:53:00,40.0,-99.9,-100.00,WNW,299,0.0,0.0,-999,-99.99,,,-99.99,,2013-04-20 04:53:00,